ENVISAT

Last updated on Sun Jul 06 2025 00:02:13 GMT+0000 (Coordinated Universal Time)

1 27386U 02009A 25186.49794672 .00000074 00000+0 37669-4 0 9992 2 27386 98.3345 141.5510 0001364 85.9941 26.3119 14.38925318223628
UTC large
Height (km)
Speed (km/s)
/
Latitude / Longitude
Inclination (degrees)
Orbital Period (minutes)
Azimuth
Elevation
Range (km)
Doppler Factor

Next 0 passes for location: London (51.5072 / 0.1276)

Sorry there are no passes over London.